Powrót do katalogu

SL-14 DEB

AktywnyPO
NORAD 39974·DEBRIS·🇷🇺 Russia

Wystrzelony Aug 18, 1987 z Plesetsk Cosmodrome

Loading…

Następne Przeloty (najbliższe 24 godziny)

TLE

ŚwieżeSource: Space-Track

Epoka: Sep 14, 2026, 13:25 UTC

1 39974U 87068DA  26257.55969324  .00001788  00000-0  86095-3 0  9991
2 39974  82.5393 352.9560 0017986 144.5143 229.3615 14.18226266630552

Śledź SL-14 DEB w czasie rzeczywistym z AllMySat

Download on the App Store